{"data":{"norad_id":85151,"intl_designator":"","name":"UNKNOWN","alt_names":[],"object_type":"UNKNOWN","status":"UNKNOWN","operator":null,"country":null,"launch_date":null,"launch_site_code":null,"launch_vehicle":null,"mission":null,"orbit_class":"UNKNOWN","rcs_meters":null,"size_class":null,"mass_kg":null,"dimensions":null,"purposes":[],"wikipedia_slug":null,"has_3d_model":false,"image_url":null,"decayed_at":null,"tle_current":{"epoch":"2026-05-23T14:34:03.573120Z","epoch_age_seconds":202163,"freshness":"STALE","line1":"1 85151U          26143.60698580  .00014475  00000+0  16588-2 0  9998","line2":"2 85151  98.3946  20.7256 0008104 358.6415   1.4775 14.86015910503511","mean_motion":14.8601591,"eccentricity":0.0008104,"inclination_deg":98.3946,"raan_deg":20.7256,"arg_perigee_deg":358.6415,"mean_anomaly_deg":1.4775,"bstar":0.0016588,"rev_number":50351,"period_min":96.903403948078,"perigee_km":604.73541257966,"apogee_km":616.06243160218,"semimajor_km":6988.5359220909,"source":"CELESTRAK","updated_at":"2026-05-25T13:38:11.431042Z"}}}